Location: Home
(42.5358°N, 72.7383°W)
Time: 04:50:55
(UTC-05:00)

A-11 Canister half - Pass Details

Date: 29 November 2021
Orbit: 1524 x 1684 km, 47.3° (Epoch: 17 January)

Event Time Altitude Azimuth Distance (km) Brightness Sun altitude
Exits shadow 02:02:15 30° 81° (E) 2,650 10.4 -53.6°
Drops below altitude 10° 02:06:51 10° 68° (ENE) 3,899 11.5 -52.8°
Sets 02:10:03 0° 64° (ENE) 4,869 12.2 -52.2°
